Regional Weather Roundup
Issued by NWS

Home | Current Version | Previous Version | Graphics & Text | Print | Product List | Glossary On
Versions: 1 2 3 4 5 6 7 8 9 10 11 12 13 14 15 16 17 18 19 20 21 22 23 24 25 26 27 28 29 30 31 32 33 34 35 36 37 38 39 40 41 42 43 44 45 46 47 48 49 50
000
ASUS43 KLOT 172303
RWRIL

ILLINOIS REGIONAL WEATHER ROUNDUP
NATIONAL WEATHER SERVICE CHICAGO/ROMEOVILLE IL
500 PM CST FRI NOV 17 2017

NOTE: "FAIR" INDICATES FEW OR NO CLOUDS BELOW 12,000 FEET WITH NO
SIGNIFICANT WEATHER AND/OR OBSTRUCTIONS TO VISIBILITY.

* THESE STATIONS ARE NOT UNDER NWS QUALITY CONTROL. THEY ALSO MAY NOT
  REPORT WEATHER SUCH AS PRECIPITATION OR FOG.

ILZ001-002-007-009-015-016-024-180000-
NORTHWEST ILLINOIS

CITY           SKY/WX    TMP DP  RH WIND       PRES   REMARKS
MOLINE         CLOUDY    46  40  79 SE7       29.61F
STERLING*      CLOUDY    42  39  89 SE9       29.65F
SAVANNA*       CLOUDY    41  39  93 SE8       29.63F FOG
$$

ILZ003-004-008-010-011-017-018-180000-
NORTH CENTRAL ILLINOIS

CITY           SKY/WX    TMP DP  RH WIND       PRES   REMARKS
ROCKFORD       DRIZZLE   40  37  89 S17       29.69F FOG
FREEPORT*      CLOUDY    38  37  97 SE10      29.67F THUNDER FOG
ROCHELLE*      CLOUDY    39  38  95 S16G23    29.67F THUNDER FOG
DE KALB*       CLOUDY    39  38  97 S17G25    29.69F THUNDER FOG
PERU*          CLOUDY    40  39  95 S13       29.68F THUNDER FOG
$$

ILZ005-006-012>014-019>023-180000-
NORTHEAST ILLINOIS

CITY           SKY/WX    TMP DP  RH WIND       PRES   REMARKS
CHICAGO-OHARE  LGT RAIN  42  37  82 S14       29.70F
CHICAGO-MIDWAY LGT RAIN  44  38  79 S12G22    29.71F
AURORA         LGT RAIN  40  38  93 SE16      29.71F FOG
LANSING*       CLOUDY    44  37  77 SE15G21   29.74F THUNDER
JOLIET*        TSTM      43  40  90 S8        29.74S
WAUKEGAN       CLOUDY    41  38  89 S12G20    29.70F
DUPAGE AIRPORT CLOUDY    40  39  97 S12       29.70F FOG
KANKAKEE*      CLOUDY    45  36  71 SE18G25   29.72F THUNDER
WHEELING       LGT RAIN  43  39  86 S13G21    29.72F FOG
MORRIS*        TSTM      41  39  93 SE13      29.71F VSB 1
ROMEOVILLE*    TSTM      41  38  89 SW8       29.75R
NORTHERLY ISL    N/A     44  36  73 SE10        N/A
$$

LMZ740>746-180000-
SOUTHERN LAKE MICHIGAN

STATION/POSITION SKY/WX   TEMP    WIND        PRES    VSBY  WAVE
                          AIR SEA DIR/SP/G                  HT/PER
                          (F)     (DEG/KT/KT) (MB)    (MI)  (FT/S)
SOUTHERN BUOY              45 50  170/ 23/ 31 1008.8          6/ 6
HARRISON CRIB              46     160/ 22/ 27   N/A
BURNHAM HARBOR             43     140/  3/ 16   N/A
BURNS HARBOR               45     160/ 12/ 20 1008.1F
MICHIGAN CITY              44     140/ 17/ 22   N/A
$$

ILZ025>027-034>036-040-047-049-050-058-095>099-180000-
WEST-CENTRAL ILLINOIS

CITY           SKY/WX    TMP DP  RH WIND       PRES   REMARKS
QUINCY         CLOUDY    53  45  74 SE6       29.60F
GALESBURG*     CLOUDY    46  42  86 SE7       29.63F
MACOMB*        CLOUDY    48  43  83 S12       29.64F
JACKSONVILLE*  CLOUDY    52  44  74 S17G24    29.66S
PITTSFIELD*    CLOUDY    54  46  76 SE14G21   29.65F
$$

ILZ028>032-037-038-041>044-048-051>054-059>061-180000-
CENTRAL ILLINOIS

CITY           SKY/WX    TMP DP  RH WIND       PRES   REMARKS
PONTIAC        CLOUDY    44  43  97 S15       29.72S
BLOOMINGTON    LGT RAIN  43  39  87 S25       29.70F
DECATUR        MOCLDY    46  40  79 S16       29.73F
PEORIA         CLOUDY    45  42  89 S15       29.67F
LACON*         CLOUDY    44  42  92 S12G18    29.66F
LINCOLN*       CLOUDY    47  43  84 S15       29.70F
SPRINGFIELD    CLOUDY    50  44  80 S23       29.69F
TAYLORVILLE    CLOUDY    48  42  80 S13G18    29.74R
$$

ILZ033-039-045-046-055>057-062-063-180000-
EAST-CENTRAL ILLINOIS

CITY           SKY/WX    TMP DP  RH WIND       PRES   REMARKS
CHAMPAIGN      CLOUDY    45  39  79 SE18G28   29.75F
DANVILLE*      CLOUDY    44  36  74 SE15G21   29.75F
RANTOUL*       CLOUDY    45  40  84 S20       29.75F
MATTOON        PTCLDY    45  39  79 S18G25    29.76F
PARIS*         CLOUDY    44  39  83 SE16      29.81F
$$

ILZ079-100>102-180000-
SOUTHWEST ILLINOIS

CITY           SKY/WX    TMP DP  RH WIND       PRES   REMARKS
ALTON          CLOUDY    52  46  82 SE15      29.72F
BELLEVILLE     CLOUDY    55  45  70 S9        29.72F
CAHOKIA*       CLOUDY    54  45  71 S13       29.72F
SPARTA*        CLOUDY    55  46  70 S12       29.76F
$$

ILZ064>066-069>071-074>076-080>082-084>086-088>090-092>094-180000-
SOUTH-CENTRAL ILLINOIS

CITY           SKY/WX    TMP DP  RH WIND       PRES   REMARKS
CARBONDALE     CLOUDY    58  46  64 S14G24    29.78F
CAIRO*         MOCLDY    60  49  66 SE14      29.80F
EFFINGHAM*     MOCLDY    46  42  88 SE13G20   29.81F
MARION         CLOUDY    57  45  62 SE12      29.80F
MT. VERNON     CLOUDY    50  42  74 SE8       29.80F
CENTRALIA*     CLOUDY    52  44  75 SE14G21   29.76F
SALEM*         CLOUDY    50  42  73 SE12G18   29.77F
METROPOLIS*    CLOUDY    60  47  62 SE6       29.83F
$$

ILZ067-068-072-073-078-083-087-091-180000-
SOUTHEAST ILLINOIS

CITY           SKY/WX    TMP DP  RH WIND       PRES   REMARKS
LAWRENCEVILLE  MOCLDY    47  39  74 SE12      29.86F
FLORA*         PTCLDY    48  42  79 SE15      29.80F
FAIRFIELD*     CLOUDY    48  42  80 SE8       29.80F
HARRISBURG*    CLOUDY    52  45  77 SE8       29.83F
ROBINSON*      MOCLDY    45  38  75 SE14      29.84F
CARMI*         CLOUDY    48  43  82 SE12      29.84F
$$

ABBREVIATIONS USED IN REMARKS
   TC - TEMPERATURE IN CELSIUS
  WCI - WIND CHILL INDEX
   HX - HEAT INDEX
  VSB - VISIBILITY
$$





USA.gov is the U.S. government's official web portal to all federal, state and local government web resources and services.